Terminal Aerodrome Forecast
Issued by NWS Knoxville/Tri Cities, TN

Home | Current Version | Previous Version | Text Only | Print | Product List | Glossary On
Versions: 1 2 3 4 5 6 7 8 9 10 11 12 13 14 15 16 17 18 19 20 21 22 23 24 25 26 27 28 29 30 31 32 33 34
000
FTUS44 KMRX 242322
TAFCHA
TAF
KCHA 242322Z 2500/2524 34005KT P6SM SCT040
     FM250900 00000KT 3SM BR SKC
     FM251300 35004KT P6SM SCT350=

USA.gov is the U.S. government's official web portal to all federal, state and local government web resources and services.